Flag for Norway Weather past 2 weeks in Haugesund, Norway

Now
55 °F

Cool.


Feels Like: 53 °F
Forecast: 53 / 62 °F
Wind: 10 mph from East

Location: Haugesund / Karmoy

Current Time: Aug 29, 2014 at 1:50:08 AM

Latest Report: Aug 29, 2014 at 12:50 AM


Visibility: N/A

Pressure: 29.89 "Hg

Humidity: 82%

Dew point: 50 °F

Location of HaugesundLocation

Historic Weather in Haugesund — Graph

°F

Haugesund temperature yesterday

Maximum temperature yesterday: 63 °F (at 3:20 PM)
Minimum temperature yesterday: 50 °F (at 12:20 AM)
Average temperature yesterday: 57 °F

Past Weeks' High & Low Weather Summary

 TemperatureHumidityPressure
High66 °F (Aug 14, 12:20 PM)100% (Aug 20, 5:20 AM)29.98 "Hg (Aug 20, 5:20 AM)
Low48 °F (Aug 17, 11:20 PM)55% (Aug 15, 5:50 PM)29.21 "Hg (Aug 18, 7:20 AM)
Average57 °F82%29.65 "Hg
* Reported Aug 14 12:20 AM — Aug 29 12:50 AM, Haugesund, Weather by CustomWeather, © 2014

Note: Actual official high and low records may vary slightly from our data, if they occured in-between our weather recording intervals... More about our weather records

Advertising

Haugesund weather history for previous 24 hours

 ConditionsComfort  
Time TempWeatherWind HumidityBarometerVisibility
12:50 AM
Aug 29
55 °FCool.10 mph82%29.89 "HgN/A
12:20 AM54 °FCool.10 mph94%29.89 "HgN/A
11:50 PM
Aug 28
52 °FCool.8 mph94%29.89 "HgN/A
11:20 PM52 °FCool.7 mph94%29.89 "HgN/A
10:50 PM54 °FCool.8 mph88%29.92 "HgN/A
10:20 PM54 °FPassing clouds.8 mph88%29.92 "HgN/A
9:50 PM55 °FPassing clouds.7 mph88%29.92 "HgN/A
9:20 PM55 °FSunny.7 mph88%29.92 "Hg10 mi
8:50 PM57 °FSunny.7 mph82%29.92 "Hg10 mi
8:20 PM59 °FSunny.9 mph77%29.92 "Hg10 mi
7:50 PM61 °FSunny.6 mph68%29.92 "Hg10 mi
7:20 PM61 °FSunny.8 mph72%29.92 "Hg10 mi
6:50 PM61 °FSunny.8 mph72%29.92 "Hg10 mi
6:20 PM61 °FSunny.12 mph68%29.92 "Hg10 mi
5:50 PM61 °FSunny.9 mph68%29.95 "Hg10 mi
5:20 PM61 °FSunny.14 mph68%29.95 "Hg10 mi
4:50 PM61 °FSunny.13 mph68%29.95 "Hg10 mi
4:20 PM61 °FSunny.14 mph68%29.95 "Hg10 mi
3:50 PM63 °FPassing clouds.13 mph64%29.95 "HgN/A
3:20 PM63 °FPassing clouds.14 mph64%29.95 "HgN/A
2:50 PM61 °FPassing clouds.16 mph63%29.95 "HgN/A
2:20 PM61 °FPassing clouds.14 mph68%29.95 "HgN/A
1:50 PM61 °FPassing clouds.14 mph63%29.95 "HgN/A
1:20 PM61 °FPartly sunny.13 mph68%29.95 "HgN/A
12:50 PM61 °FPartly sunny.10 mph68%29.95 "HgN/A
12:20 PM61 °FPartly sunny.10 mph63%29.95 "HgN/A
11:50 AM61 °FPartly sunny.9 mph68%29.95 "HgN/A
11:20 AM61 °FPartly sunny.10 mph68%29.95 "HgN/A
10:50 AM61 °FPartly sunny.9 mph72%29.95 "HgN/A
10:20 AM59 °FBroken clouds.8 mph82%29.95 "HgN/A
9:50 AM59 °FBroken clouds.8 mph82%29.95 "HgN/A
9:20 AM57 °FPartly sunny.9 mph88%29.95 "HgN/A
8:50 AM57 °FPartly sunny.7 mph94%29.95 "HgN/A
8:20 AM57 °FPartly sunny.8 mph88%29.95 "HgN/A
7:50 AM55 °FPartly sunny.8 mph94%29.95 "HgN/A
7:20 AM55 °FPassing clouds.8 mph94%29.95 "HgN/A
6:50 AM55 °FPassing clouds.9 mph94%29.95 "HgN/A
6:20 AM55 °FPassing clouds.8 mph94%29.95 "HgN/A
5:50 AM55 °FPassing clouds.7 mph94%29.95 "HgN/A
5:20 AM55 °FOvercast.7 mph94%29.95 "HgN/A
4:50 AM54 °FOvercast.8 mph94%29.95 "HgN/A
4:20 AM54 °FOvercast.8 mph100%29.95 "HgN/A
3:50 AM52 °FOvercast.8 mph100%29.95 "HgN/A
3:20 AM50 °FPassing clouds.7 mph100%29.95 "HgN/A
2:50 AM52 °FCool.8 mph94%29.95 "Hg2 mi
2:20 AM52 °FCool.8 mph94%29.95 "Hg3 mi
1:50 AM54 °FPassing clouds.7 mph94%29.95 "Hg5 mi
1:20 AM54 °FPartly cloudy.7 mph94%29.95 "Hg2 mi
Weather by CustomWeather, © 2014

See weather overviewHow to use our weather pages